Location: Bourg
(45.8902°N, 5.1585°E)
Time: 05:02:47
(UTC+00:00)

Daily predictions for brighter satellites

Satellite Brightness Start Highest point End
(mag) Time Altitude Azimuth Time Altitude Azimuth Time Altitude Azimuth
Cosmos 2278 Rocket 4.4 02:10:08 19° E 02:10:08 19° E 02:12:08 10° ESE
Cosmos 2333 Rocket 3.9 02:21:07 29° NE 02:21:07 29° NE 02:24:00 10° NE
NOSS 3-2 (C) 4.4 02:20:06 57° NE 02:20:26 57° NE 02:28:35 10° ESE
Cosmos 2219 Rocket 3.6 02:37:20 34° NE 02:37:20 34° NE 02:40:30 10° NNE
USA 234 3.7 02:34:17 10° ESE 02:40:37 55° NNE 02:40:51 55° NNE
COSMOS 2455 4.0 02:49:04 36° N 02:49:04 36° N 02:52:40 10° NNE
Cosmos 2237 Rocket 3.6 02:47:34 32° ESE 02:48:12 33° ESE 02:53:13 10° NE
ATLAS 3B R/B 3.3 02:47:49 42° N 02:49:31 52° NE 02:56:09 10° ESE
CENTAUR R/B 3.3 02:54:44 32° NNW 02:58:56 68° NE 03:07:35 10° SE
Cosmos 2322 Rocket 4.4 03:03:58 14° N 03:03:58 14° N 03:05:16 10° N
Cosmos 1980 4.4 03:05:16 47° SE 03:05:48 48° ESE 03:11:13 10° NE
Cosmos 2360 Rocket 3.9 03:11:46 21° N 03:11:46 21° N 03:14:08 10° N
COSMOS 2428 3.3 03:11:04 47° N 03:11:04 47° N 03:15:09 10° NNE
ADEOS II 4.1 03:07:35 10° N 03:09:02 18° N 03:09:02 18° N
ATLAS 2AS CENTAUR R/B 3.0 03:16:30 59° SSW 03:18:20 87° SE 03:26:26 10° NE
Cosmos 1707 4.5 03:21:26 31° E 03:21:41 31° E 03:25:11 10° NNE
MSX 4.4 03:26:57 10° NNE 03:32:36 56° E 03:38:12 10° S
Cosmos 1709 Rocket 4.4 03:34:58 45° NW 03:34:58 45° NW 03:40:01 10° N
CZ-2C R/B 4.0 03:29:10 10° NNE 03:33:57 36° E 03:38:39 10° SSE
NOSS 0 Rocket 3.8 03:33:19 61° SSW 03:34:32 90° WNW 03:40:46 10° NNE
IDEFIX/ARIANE 42P 2.4 03:35:03 10° NNE 03:40:20 88° WNW 03:41:20 60° SSW
Cosmos 2184 Rocket 4.0 03:36:05 10° S 03:42:18 79° E 03:48:37 10° N
PSLV R/B 4.1 03:38:31 10° NNE 03:41:40 49° N 03:41:40 49° N
SL-16 R/B 3.7 03:37:49 10° SSE 03:42:52 34° ESE 03:47:57 10° NE
NOSS 3-2 (A) 4.3 03:45:56 44° WSW 03:46:04 44° WSW 03:53:52 10° S
RESURS DK-1 4.0 03:44:36 18° SSE 03:47:00 33° ESE 03:50:45 10° NE
USA 267 3.2 03:42:47 10° NE 03:49:17 68° NNW 03:51:17 46° W
Cosmos 2278 Rocket 2.3 03:52:10 52° SW 03:52:10 52° SW 03:57:09 10° S
Cosmos 2297 4.3 03:49:07 10° NNW 03:54:47 57° ENE 04:00:25 10° SE
Cosmos 407 Rocket 3.3 03:59:52 50° SW 04:01:06 69° WNW 04:06:15 10° NNE
Cosmos 1190 Rocket 3.9 04:00:14 38° SW 04:02:17 76° WNW 04:07:36 10° NNE
Cosmos 2333 Rocket 3.1 04:03:09 31° NW 04:03:09 31° NW 04:08:05 10° N
Cosmos 2058 Rocket 4.3 04:02:40 10° N 04:06:55 43° ENE 04:11:09 10° SSE
NOSS 3-2 (C) 4.3 04:07:39 27° WNW 04:11:26 44° WSW 04:19:16 10° S
Cosmos 2074 Rocket 3.9 04:05:58 10° SSW 04:12:08 62° WNW 04:18:18 10° N
Meteor 2-10 4.5 04:10:56 10° N 04:16:08 64° ENE 04:21:28 10° SSE
Cosmos 2219 Rocket 3.3 04:19:05 24° NW 04:19:23 24° NW 04:23:55 10° N
USA 234 3.3 04:17:11 10° SE 04:23:37 59° SW 04:28:13 20° WNW
Cosmos 1437 Rocket 3.4 04:23:50 10° S 04:27:32 56° E 04:31:15 10° NNE
NOSS 3-4 (A) 3.6 04:25:47 27° WSW 04:28:58 54° NW 04:35:18 10° NNE
NOSS 3-4 (C) 3.6 04:25:49 27° WSW 04:29:03 54° NW 04:35:24 10° NNE
Cosmos 1892 Rocket 3.5 04:25:07 10° S 04:29:33 86° E 04:33:58 10° N
In-Cosmos 22 4.2 04:25:15 10° S 04:30:36 83° E 04:36:08 10° NNE
SJ-6F 4.4 04:27:38 10° N 04:31:45 59° WNW 04:35:47 10° SSW
Cosmos 2237 Rocket 2.6 04:29:27 26° WSW 04:32:07 43° NW 04:37:33 10° NNE
ADEOS 4.2 04:28:08 10° N 04:32:48 34° WNW 04:34:54 25° WSW
COSMOS 2455 4.5 04:32:13 16° NW 04:33:54 17° NNW 04:37:48 10° N
ALOS 4.3 04:29:56 10° NNE 04:34:05 31° E 04:38:13 10° SSE
H-2A R/B 3.0 04:32:42 10° N 04:36:35 38° WNW 04:38:53 21° SW
BREEZE-M DEB (TANK) 2.5 04:35:29 27° WNW 04:37:08 46° N 04:39:28 10° ENE
PSLV R/B 4.0 04:34:12 10° NNE 04:37:54 65° ESE 04:41:34 10° S
Cosmos 1140 Rocket 3.7 04:35:02 17° SW 04:38:54 48° WNW 04:43:55 10° NNE
Cosmos 1954 Rocket 3.9 04:33:56 10° SSW 04:39:08 65° WNW 04:44:20 10° NNE
ATLAS 3B R/B 3.1 04:35:09 16° NW 04:40:04 39° WSW 04:46:21 10° S
Cosmos 1606 Rocket 3.8 04:36:02 10° NNW 04:40:09 44° W 04:44:14 10° SSW
Meteor 1-4 Rocket 3.0 04:41:56 28° WSW 04:43:00 35° WNW 04:46:14 10° N
Cosmos 1908 3.5 04:39:43 10° N 04:43:34 67° E 04:47:20 10° SSE
Cosmos 2369 Rocket 3.4 04:40:32 10° NNW 04:45:51 43° NE 04:51:09 10° SE
PAYLOAD A 4.3 04:42:01 10° N 04:46:36 43° WNW 04:51:19 10° SW
GP-B 3.0 04:42:28 10° S 04:46:54 76° W 04:51:22 10° N
Cosmos 1726 2.0 04:44:10 10° NNW 04:47:50 67° W 04:51:28 10° S
Cosmos 1953 3.2 04:44:53 10° NNW 04:48:19 27° W 04:51:43 10° SSW
CENTAUR R/B 3.7 04:42:11 10° NW 04:49:29 37° WSW 04:57:13 10° S
Cosmos 468 Rocket 4.2 04:44:23 10° NNW 04:49:33 73° ENE 04:54:40 10° SSE
Cosmos 389 Rocket 3.9 04:50:47 20° NW 04:50:47 20° NW 04:52:52 10° NNW
Gblst 52 Del rocket 4.2 04:46:12 17° WNW 04:50:29 83° SSW 04:56:28 10° ESE
USA 116 4.1 04:50:13 10° SSE 04:53:49 56° ENE 04:57:06 10° N
COSMOS 2428 4.3 04:53:06 14° WNW 04:54:48 16° NW 04:58:11 10° N
CZ-4B R/B 3.1 04:51:03 10° N 04:54:53 45° WNW 04:58:30 10° SW
CZ-4B R/B 4.2 04:52:20 10° NNE 04:57:28 49° E 05:02:34 10° S
Cosmos 1707 4.0 04:56:41 19° W 04:57:38 21° WNW 05:00:40 10° NNW
Meteor 1-31 Rocket 3.2 04:54:36 10° N 04:58:10 38° WNW 05:01:41 10° SW
Cosmos 1570 Rocket 4.5 04:56:18 10° NNW 05:01:39 67° ENE 05:06:55 10° SSE
Cosmos 44 Rocket 3.4 04:57:59 10° NW 05:02:33 50° WSW 05:07:03 10° SSE
Cosmos 1356 4.3 05:00:10 10° NNW 05:03:09 28° W 05:06:09 10° SSW
Cosmos 1626 Rocket 3.9 05:00:09 10° S 05:04:25 70° E 05:08:45 10° NNE
ERBS 4.3 05:04:03 12° NW 05:05:46 16° NNW 05:07:59 10° NNE
Okean 1-7 Rocket 4.1 05:05:15 10° SW 05:09:23 37° WNW 05:13:36 10° N
ATLAS 2AS CENTAUR R/B 3.8 05:03:59 13° W 05:10:18 35° NNW 05:17:28 10° NNE
Cosmos 1674 2.6 05:07:18 10° SSW 05:10:56 57° W 05:14:38 10° N
COSMO-SKYMED 1 2.6 05:07:23 10° S 05:11:38 57° W 05:15:57 10° NNW
Cosmos 1943 Rocket 2.5 05:06:13 10° NNW 05:11:55 75° ENE 05:17:35 10° SSE
BREEZE-M DEB (TANK) 3.2 05:06:46 10° WSW 05:11:57 56° SSE 05:14:40 10° E
CZ-2C R/B 3.2 05:07:29 10° N 05:12:05 33° WNW 05:16:38 10° SW
Cosmos 2228 4.0 05:08:52 10° NW 05:12:16 23° W 05:15:38 10° SW
Meteor 2-17 Rocket 4.4 05:06:21 10° SSW 05:12:24 69° W 05:18:27 10° N
Cosmos 1484 Rocket 2.8 05:10:20 10° N 05:14:04 56° WNW 05:17:50 10° SSW
Cosmos 2218 Rocket 4.1 05:08:51 10° S 05:15:14 88° E 05:21:35 10° N
Cosmos 2208 Rocket 4.3 05:10:11 10° NNW 05:15:25 74° ENE 05:20:41 10° SSE
FENGYUN 3A 4.0 05:11:32 10° NNE 05:17:00 75° ESE 05:22:25 10° S
METEOR-M 4.3 05:12:19 10° NNE 05:17:42 81° ESE 05:23:02 10° SSW
IDEFIX/ARIANE 42P 4.2 05:16:24 10° NNW 05:19:09 15° WNW 05:21:54 10° W
COBE Rocket 4.2 05:14:20 10° S 05:19:12 48° W 05:24:13 10° NNW
Cosmos 1741 Rocket 4.0 05:15:48 10° SSW 05:21:06 70° WNW 05:26:27 10° NNE
Helios 1A Rocket 2.9 05:20:22 10° N 05:24:32 75° WNW 05:28:40 10° SSW
RESURS DK-1 3.4 05:21:33 10° WSW 05:25:04 27° NW 05:28:38 10° N
Cosmos 1603 4.2 05:20:56 10° SSW 05:26:29 68° ESE 05:32:09 10° NNE
SL-16 R/B 2.7 05:21:34 10° SW 05:26:53 41° NW 05:32:15 10° NNE
Meteor 1-24 Rocket 3.8 05:22:00 10° SSW 05:27:46 75° W 05:33:46 10° N
Cosmos 1763 Rocket 3.5 05:23:30 10° NNW 05:28:39 68° WSW 05:33:42 10° S
Cosmos 540 Rocket 4.1 05:25:22 10° NNW 05:30:30 61° ENE 05:35:35 10° SSE
USA 267 4.1 05:25:49 10° NE 05:31:42 37° NNW 05:37:34 10° WNW
Cosmos 1626 2.5 05:29:26 10° S 05:33:07 70° E 05:36:50 10° NNE
Cosmos 1727 Rocket 4.1 05:28:55 10° N 05:35:10 87° W 05:41:27 10° S
